SCOUT A DEB

Satellite information

Favourite Embed

Satellite Type and Status

DEBRISIN ORBIT

Key statistics

Satellite SCOUT A DEB at a glance.

Uptime

21537

Days in orbit

Revolutions

≈ 13.8

Per day

Orbit

SSO

Sun Synchronous Orbit

Inclination

90.2

Latest

Satellite identification and parameters

Extended collection of information and parameters for SCOUT A DEB.

Object identification

Identified? True

Debris? True

Object name: SCOUT A DEB

International designator: 1966-041D

Object number (NORAD): 2644

Object ID (CCSDS): 2644

Country: UNITED STATES OF AMERICA (US)

Current information (Y/N): Y

RCS size: SMALL

Orbital parameters

Period: 104.58 minutes

Inclination: 90.1551 deg

SMA: 7352.913 km

Apoapsis: 1131.518 km

Periapsis: 818.038 km

RAAN: 38.4658 deg

Eccentricy: 0.0213167

Argument of periapsis: 164.0189 deg

Mean anomaly: 196.7844 deg

Mean motion: 13.76935599 rev/day

Mean motion (dot): 0.00000333 rev/day2

B* drag term: 0.0002769 1/REarth

Two-line elements (TLE)

Creation date: May 5, 2025, 2:11 a.m.

Reference frame: TEME

Reference center: EARTH

Epoch: May 4, 2025, 4:34 p.m. UTC

TLE line 0: 0 SCOUT A DEB

TLE line 1: 1 02644U 66041D 25124.69071529 .00000333 00000-0 27690-3 0 9992

TLE line 2: 2 02644 90.1551 38.4658 0213167 164.0189 196.7844 13.76935599942474

Live tracking on map

Real-time ground track for satellite SCOUT A DEB.

In-orbit conjunctions

A list of the most updated potential collisions computed for object SCOUT A DEB.

Target Orbit TCA Probability of collision Miss distance Type
ARGOS SSO 2024-09-26 11:59:47 0.0005256117 474.0 (m) PAYLOAD

Associated space launch

The Transit-O series of satellites that closely followed the design of Transit 5C-1 were also called “Oscars” (Oscar is the phonetic alphabet for “O”, i. e., operational). They were also called NNS (Navy Navigation Satellite) or shortened NavSat.

SCOUT A DEB was lifted into orbit during the mission ‘Scout A | Transit-O 9’, on board a Scout A space rocket.

The launch took place on May 19, 1966, 2:27 a.m. from Space Launch Complex 5.

For more information about the launch, click the button.

Launch to space Scout A | Transit-O 9
Scout A | Transit-O 9

Agency: N/A

Status: Launch Successful

Launch date: May 19, 1966, 2:27 a.m. UTC

Rocket: Scout A

Launch pad: Space Launch Complex 5

Location: Vandenberg SFB, CA, USA

...

Latest news about this satellite

There are no fresh news available about this satellite. Check back as we update our databases every day.


Newsletter sign-up

Weekly statistics, charts and insights to help you stay on top of the space industry.